Location: Valdosta
(30.8330°N, 83.2790°W)
Time: 03:21:36
(UTC-04:00)

Daily predictions for brighter satellites

Satellite Brightness Start Highest point End
(mag) Time Altitude Azimuth Time Altitude Azimuth Time Altitude Azimuth
CZ-3A R/B 4.3 02:45:24 57° ENE 02:45:24 57° ENE 03:11:26 10° NE
SL-16 R/B 3.9 03:41:15 34° NE 03:41:15 34° NE 03:46:00 10° N
CENTAUR R/B 3.8 03:47:14 36° NE 03:47:14 36° NE 03:51:05 10° NE
CZ-2D R/B 3.8 03:58:23 10° NNE 04:00:55 28° NNE 04:00:55 28° NNE
Resurs 1-4 Rocket 3.4 04:22:02 10° N 04:24:59 34° N 04:24:59 34° N
Okean O Rocket 3.2 04:29:03 10° NNE 04:32:24 32° ENE 04:32:24 32° ENE
COSMOS 2406 3.6 04:37:42 60° N 04:37:42 60° N 04:42:23 10° NNE
CZ-4B R/B 3.9 04:45:49 10° NNE 04:50:54 47° E 04:52:34 35° SSE
Cosmos 1943 Rocket 2.7 04:46:15 10° NNW 04:50:11 47° NNW 04:50:11 47° NNW
Cosmos 407 Rocket 4.0 04:51:35 50° SE 04:52:14 54° ESE 04:57:21 10° NNE
Okean 1-7 4.1 04:54:53 38° ESE 04:55:27 40° E 04:59:31 10° NNE
SeaSat 1 4.1 04:52:26 10° ESE 04:56:47 33° ENE 05:01:09 10° N
IRS-1C Rocket 4.1 04:52:13 10° NNE 04:57:30 76° ESE 04:58:07 67° SSE
Atlas Centaur 2 2.4 04:59:34 41° ESE 04:59:34 41° ESE 05:02:53 10° E
USA 234 4.0 05:01:36 10° NNE 05:07:25 36° NW 05:08:50 32° WNW
CZ-4B R/B 3.3 05:04:45 10° NNE 05:08:16 57° E 05:08:16 57° E
Aureole 3 Rocket 3.9 05:05:10 26° S 05:09:24 82° E 05:14:38 10° N
Cosmos 1656 Rocket 3.7 05:11:34 10° NNW 05:16:58 72° ENE 05:22:21 10° SSE
Cosmos 1825 3.6 05:13:21 10° N 05:15:22 30° NNW 05:15:22 30° NNW
Okean 2 Rocket 3.8 05:16:44 10° N 05:21:10 54° E 05:25:35 10° SSE
Nadezhda 1 Rocket 4.0 05:21:21 40° SW 05:23:31 62° W 05:29:48 10° N
SL-16 R/B 3.8 05:26:22 22° WNW 05:26:22 22° WNW 05:29:15 10° NW
ADEOS Rocket 3.9 05:20:26 10° NNE 05:28:11 65° E 05:35:38 10° S
Cosmos 1782 Rocket 3.4 05:30:12 10° N 05:34:32 79° W 05:38:05 15° S
CENTAUR R/B 4.0 05:34:26 18° WNW 05:35:55 19° NW 05:40:31 10° N
PAYLOAD B 4.3 05:31:28 10° N 05:36:52 56° WNW 05:39:16 32° SW
CZ-2D R/B 4.1 05:40:47 10° NW 05:42:14 12° NW 05:42:14 12° NW
COSMOS 2487 3.6 05:44:02 29° NW 05:44:02 29° NW 05:46:44 10° N
Cosmos 2181 Rocket 4.1 05:37:41 10° S 05:44:07 80° E 05:50:32 10° N
CZ-2C R/B 3.7 05:42:00 20° S 05:44:50 50° W 05:49:09 10° NNW
Cosmos 1992 Rocket 4.3 05:45:01 10° NNW 05:49:54 41° W 05:54:47 10° S
ASTRO F (AKARI) 4.4 05:49:54 10° S 05:53:30 73° W 05:56:56 10° NNW
Thor Agena Rocket 3.4 05:51:24 10° S 05:56:30 72° WSW 06:01:42 10° NNW
Cosmos 1023 Rocket 4.4 05:53:12 10° SSW 05:58:16 89° ESE 06:03:23 10° NNE
Cosmos 1954 Rocket 4.0 05:55:16 19° SSW 05:58:52 58° WNW 06:03:59 10° N
Cosmos 2154 Rocket 4.0 05:57:21 10° NNW 06:03:34 60° W 06:09:46 10° S
USA 229 DEB 4.2 06:00:32 10° SSW 06:07:19 63° ESE 06:14:10 10° NE
USA 229 4.2 06:00:39 10° SSW 06:07:25 62° ESE 06:14:15 10° NE
OAO 3 Rocket 4.2 06:04:08 15° SSW 06:07:36 37° SSE 06:11:57 10° E
Okean O Rocket 3.3 06:06:26 10° NNW 06:09:10 16° WNW 06:09:51 16° W
Meteor 2-10 Rocket 3.8 06:05:42 10° SSW 06:11:25 61° W 06:17:05 10° N
Timation 2 Rocket 3.9 06:05:07 10° SSW 06:11:26 84° WNW 06:17:32 10° NNE
Meteor PRIRODA 3.7 06:08:41 10° N 06:12:25 61° WNW 06:16:08 10° SSW
CZ-4B R/B 4.3 06:10:51 10° NNE 06:15:21 77° E 06:19:41 10° S
ADEOS II 2.2 06:10:51 10° N 06:15:59 57° WNW 06:21:07 10° SSW
USA 116 4.2 06:13:15 10° S 06:17:57 75° WSW 06:23:10 10° NNW
Okean-O 3.1 06:16:07 10° N 06:20:16 40° WNW 06:24:23 10° SW
deb Centaur AC-2 4.0 06:18:23 16° WSW 06:21:54 74° S 06:26:12 10° E
Feng Yun 1-1 Rocket 4.4 06:17:04 10° N 06:22:18 53° WNW 06:27:36 10° SSW
Cosmos 1850 Rocket 4.0 06:18:51 10° SSW 06:24:05 73° WNW 06:29:24 10° NNE
Cosmos 2369 4.2 06:21:54 10° NNW 06:27:37 67° ENE 06:33:17 10° SSE
SL-8 Rocket 4.0 06:21:27 10° N 06:27:41 86° W 06:33:57 10° S
Cosmos 2341 Rocket 4.3 06:23:32 10° NNW 06:29:31 46° W 06:35:31 10° SSW
Cosmos 489 Rocket 4.4 06:23:21 10° SSW 06:29:33 75° WNW 06:35:46 10° NNE
SeaSat 1 3.4 06:30:18 10° SSW 06:34:15 24° WSW 06:38:14 10° NW
Cosmos 2151 Rocket 3.9 06:31:03 10° NNW 06:35:13 44° W 06:39:23 10° SSW
Cosmos 1606 2.7 06:33:01 10° SSW 06:36:55 68° W 06:40:49 10° N
Meteor 1-27 Rocket 3.8 06:34:36 10° S 06:40:11 89° E 06:45:44 10° N
Cosmos 1782 3.5 06:37:33 10° SW 06:41:12 33° W 06:44:54 10° NNW
CZ-4 R/B 4.4 06:39:03 10° NE 06:41:35 17° E 06:44:07 10° SE
GPS 2-05 Rocket1 4.0 06:39:28 10° WNW 06:42:35 34° N 06:45:37 10° ENE
ISS 0.0 06:42:49 10° SE 06:43:05 10° SE 06:43:20 10° ESE
MOS 1 Rocket 3.2 06:39:29 10° N 06:43:40 55° WNW 06:47:55 10° SSW
Cosmos 2082 Rocket 2.4 06:38:32 10° SW 06:44:08 56° WNW 06:49:44 10° N
